Newcastle, WY

3:39 PM MDT on June 23, 2017 (GMT -0600)
Mondell

Weather History for KECS - June, 2013

Change the Weather History Date:

Friday, June 28, 2013

  Actual Average (KCUT) Record (KCUT)
Temperature  
Mean Temperature 70 °F -  
Max Temperature 86 °F 79 °F 93 °F (2002)
Min Temperature 55 °F 49 °F 32 °F (1951)
Cooling Degree Days 6    
Growing Degree Days 20 (Base 50)    
Moisture  
Dew Point 46 °F    
Average Humidity 42    
Maximum Humidity 72    
Minimum Humidity 22    
Precipitation  
Precipitation 0.00 in - - ()
Sea Level Pressure  
Sea Level Pressure 30.27 in    
Wind  
Wind Speed 7 mph (NNW)    
Max Wind Speed 20 mph    
Max Gust Speed 26 mph    
Visibility 10 miles    
Events      
Averages and records for this station are not official NWS values.
T = Trace of Precipitation, MM = Missing Value Source: NWS Daily Summary

Daily Weather History Graph

Daily Weather History Graph

Search for Another Location

Airport or City:

Trip Planner

Search our weather history database for the weather conditions in past years. The results will help you decide how hot, cold, wet, or windy it might be!

Date:

Astronomy

Jun. 28, 2013 Rise Set
Actual Time 5:17 AM MDT 8:43 PM MDT
Civil Twilight 4:41 AM MDT 9:19 PM MDT
Nautical Twilight 3:53 AM MDT 10:07 PM MDT
Astronomical Twilight 2:53 AM MDT 11:06 PM MDT
Moon 11:59 PM MDT (6/28) 11:40 AM MDT (6/28)
Length of Visible Light 16h 38m
Length of Day
15h 26m
Waning Gibbous, 65% of the Moon is Illuminated
Jun 28
Waning Gibbous
Jun 29
Last Quarter
Jul 8
New
Jul 15
First Quarter
Jul 22
Full

Hourly Weather History & Observations

Time (MDT) Temp. Dew Point Humidity Pressure Visibility Wind Dir Wind Speed Gust Speed Precip Events Conditions
12:35 AM 64.4 °F 46.4 °F 52% 30.28 in 10.0 mi North 11.5 mph - N/A   Clear
12:55 AM 64.4 °F 48.2 °F 56% 30.29 in 10.0 mi Calm Calm - N/A   Clear
1:15 AM 62.6 °F 46.4 °F 55% 30.30 in 10.0 mi Calm Calm - N/A   Clear
1:35 AM 62.6 °F 46.4 °F 55% 30.30 in 10.0 mi North 5.8 mph - N/A   Clear
1:55 AM 60.8 °F 46.4 °F 59% 30.31 in 10.0 mi North 3.5 mph - N/A   Clear
2:15 AM 60.8 °F 48.2 °F 63% 30.31 in 10.0 mi North 6.9 mph - N/A   Clear
2:35 AM 60.8 °F 48.2 °F 63% 30.31 in 10.0 mi North 10.4 mph - N/A   Clear
2:55 AM 60.8 °F 46.4 °F 59% 30.32 in 10.0 mi NNE 3.5 mph - N/A   Clear
3:15 AM 59.0 °F 46.4 °F 63% 30.32 in 10.0 mi SE 6.9 mph - N/A   Clear
3:35 AM 55.4 °F 46.4 °F 72% 30.32 in 10.0 mi Calm Calm - N/A   Clear
3:55 AM 55.4 °F 46.4 °F 72% 30.32 in 10.0 mi ESE 3.5 mph - N/A   Clear
4:15 AM 55.4 °F 46.4 °F 72% 30.32 in 10.0 mi Calm Calm - N/A   Clear
4:35 AM 55.4 °F 46.4 °F 72% 30.31 in 10.0 mi North 6.9 mph - N/A   Clear
4:55 AM 55.4 °F 46.4 °F 72% 30.31 in 10.0 mi North 5.8 mph - N/A   Clear
5:15 AM 55.4 °F 46.4 °F 72% 30.30 in 10.0 mi North 6.9 mph - N/A   Clear
5:35 AM 59.0 °F 46.4 °F 63% 30.30 in 10.0 mi North 8.1 mph - N/A   Clear
5:55 AM 55.4 °F 46.4 °F 72% 30.31 in 10.0 mi North 3.5 mph - N/A   Clear
6:55 AM 60.8 °F 48.2 °F 63% 30.32 in 10.0 mi NNE 3.5 mph - N/A   Clear
7:15 AM 62.6 °F 50.0 °F 63% 30.31 in 10.0 mi North 4.6 mph - N/A   Clear
7:35 AM 66.2 °F 46.4 °F 49% 30.30 in 10.0 mi Calm Calm - N/A   Clear
7:55 AM 68.0 °F 48.2 °F 49% 30.30 in 10.0 mi North 3.5 mph - N/A   Clear
8:15 AM 69.8 °F 48.2 °F 46% 30.30 in 10.0 mi NW 3.5 mph - N/A   Clear
8:35 AM 71.6 °F 46.4 °F 41% 30.30 in 10.0 mi WNW 5.8 mph - N/A   Clear
8:55 AM 73.4 °F 46.4 °F 38% 30.30 in 10.0 mi WNW 5.8 mph - N/A   Clear
9:15 AM 73.4 °F 46.4 °F 38% 30.29 in 10.0 mi West 10.4 mph - N/A   Clear
9:35 AM 77.0 °F 44.6 °F 32% 30.29 in 10.0 mi NNW 6.9 mph - N/A   Scattered Clouds
9:55 AM 77.0 °F 44.6 °F 32% 30.28 in 10.0 mi North - - N/A   Clear
10:15 AM 78.8 °F 42.8 °F 28% 30.28 in 10.0 mi NW 5.8 mph - N/A   Clear
10:35 AM 78.8 °F 42.8 °F 28% 30.28 in 10.0 mi NNW 6.9 mph - N/A   Clear
10:55 AM 80.6 °F 42.8 °F 26% 30.28 in 10.0 mi NW 9.2 mph - N/A   Clear
11:15 AM 80.6 °F 44.6 °F 28% 30.28 in 10.0 mi NNW 10.4 mph 16.1 mph N/A   Clear
11:35 AM 80.6 °F 44.6 °F 28% 30.29 in 10.0 mi NW 9.2 mph 16.1 mph N/A   Clear
11:55 AM 82.4 °F 44.6 °F 26% 30.28 in 10.0 mi NNW 11.5 mph 17.3 mph N/A   Clear
12:15 PM 82.4 °F 44.6 °F 26% 30.28 in 10.0 mi NW 9.2 mph - N/A   Clear
12:35 PM 82.4 °F 46.4 °F 28% 30.28 in 10.0 mi NNW 10.4 mph 16.1 mph N/A   Clear
12:55 PM 82.4 °F 46.4 °F 28% 30.27 in 10.0 mi NW 11.5 mph 18.4 mph N/A   Clear
1:15 PM 82.4 °F 46.4 °F 28% 30.26 in 10.0 mi NW 11.5 mph - N/A   Clear
1:35 PM 84.2 °F 46.4 °F 27% 30.26 in 10.0 mi NW 10.4 mph 18.4 mph N/A   Clear
1:55 PM 84.2 °F 46.4 °F 27% 30.25 in 10.0 mi NNW 15.0 mph 20.7 mph N/A   Clear
2:15 PM 84.2 °F 46.4 °F 27% 30.25 in 10.0 mi NW 12.7 mph 18.4 mph N/A   Clear
2:35 PM 86.0 °F 46.4 °F 25% 30.25 in 10.0 mi NW 16.1 mph 20.7 mph N/A   Clear
2:55 PM 86.0 °F 46.4 °F 25% 30.24 in 10.0 mi NNW 8.1 mph 17.3 mph N/A   Clear
3:15 PM 86.0 °F 46.4 °F 25% 30.24 in 10.0 mi NW 16.1 mph 20.7 mph N/A   Clear
3:35 PM 86.0 °F 46.4 °F 25% 30.24 in 10.0 mi NW 12.7 mph 20.7 mph N/A   Clear
3:55 PM 86.0 °F 46.4 °F 25% 30.24 in 10.0 mi NW 13.8 mph 19.6 mph N/A   Clear
4:15 PM 86.0 °F 44.6 °F 23% 30.24 in 10.0 mi NW 19.6 mph 26.5 mph N/A   Clear
4:35 PM 86.0 °F 42.8 °F 22% 30.23 in 10.0 mi NNW 16.1 mph 23.0 mph N/A   Clear
4:55 PM 84.2 °F 42.8 °F 23% 30.23 in 10.0 mi NNW 13.8 mph 23.0 mph N/A   Clear
5:15 PM 84.2 °F 44.6 °F 25% 30.22 in 10.0 mi NW 11.5 mph 19.6 mph N/A   Clear
5:35 PM 84.2 °F 44.6 °F 25% 30.22 in 10.0 mi NNW 15.0 mph 20.7 mph N/A   Clear
5:55 PM 82.4 °F 44.6 °F 26% 30.22 in 10.0 mi NNW 12.7 mph 19.6 mph N/A   Clear
6:15 PM 82.4 °F 44.6 °F 26% 30.22 in 10.0 mi NW 15.0 mph 23.0 mph N/A   Clear
6:35 PM 82.4 °F 42.8 °F 25% 30.21 in 10.0 mi NW 15.0 mph 23.0 mph N/A   Clear
6:55 PM 82.4 °F 44.6 °F 26% 30.21 in 10.0 mi NW 12.7 mph - N/A   Clear
7:15 PM 80.6 °F 44.6 °F 28% 30.21 in 10.0 mi NW 11.5 mph - N/A   Clear
7:35 PM 80.6 °F 44.6 °F 28% 30.21 in 10.0 mi NNW 10.4 mph - N/A   Clear
7:55 PM 78.8 °F 44.6 °F 30% 30.21 in 10.0 mi North 6.9 mph - N/A   Clear
8:15 PM 77.0 °F 44.6 °F 32% 30.21 in 10.0 mi North 6.9 mph - N/A   Clear
8:35 PM 75.2 °F 44.6 °F 34% 30.21 in 10.0 mi North 4.6 mph - N/A   Clear
8:55 PM 73.4 °F 46.4 °F 38% 30.21 in 10.0 mi Calm Calm - N/A   Clear
9:15 PM 71.6 °F 46.4 °F 41% 30.22 in 10.0 mi North 4.6 mph - N/A   Clear
9:35 PM 71.6 °F 46.4 °F 41% 30.22 in 10.0 mi Calm Calm - N/A   Clear
9:55 PM 69.8 °F 46.4 °F 43% 30.24 in 10.0 mi Calm Calm - N/A   Clear
10:15 PM 66.2 °F 48.2 °F 52% 30.24 in 10.0 mi North 3.5 mph - N/A   Clear
10:35 PM 69.8 °F 48.2 °F 46% 30.24 in 10.0 mi NE 4.6 mph - N/A   Clear
10:55 PM 66.2 °F 48.2 °F 52% 30.24 in 10.0 mi Calm Calm - N/A   Clear
11:15 PM 66.2 °F 48.2 °F 52% 30.24 in 10.0 mi NW 3.5 mph - N/A   Clear
11:35 PM 64.4 °F 48.2 °F 56% 30.24 in 10.0 mi Calm Calm - N/A   Clear
11:55 PM 62.6 °F 48.2 °F 59% 30.25 in 10.0 mi NNW 3.5 mph - N/A   Clear